Time,TemperatureF,DewpointF,PressureIn,WindDirection,WindDirectionDegrees,WindSpeedMPH,WindSpeedGustMPH,Humidity,HourlyPrecipIn,Conditions,Clouds,dailyrainin,SoftwareType,DateUTC
2013-07-12 00:01:00,83.1,55.6,29.58,SE,142,0.0,0.0,39,0.00,,,0.00,Wunderground v.1.15,2013-07-12 06:01:00,
2013-07-12 00:06:00,83.1,55.6,29.58,SE,141,0.0,0.0,39,0.00,,,0.00,Wunderground v.1.15,2013-07-12 06:06:00,
2013-07-12 00:16:00,83.1,55.6,29.58,SE,142,0.0,0.0,39,0.00,,,0.00,Wunderground v.1.15,2013-07-12 06:16:00,
2013-07-12 00:21:00,83.0,56.2,29.58,SE,142,0.0,0.0,40,0.00,,,0.00,Wunderground v.1.15,2013-07-12 06:21:00,
2013-07-12 00:26:00,83.0,56.2,29.59,SE,142,0.0,0.0,40,0.00,,,0.00,Wunderground v.1.15,2013-07-12 06:26:00,
2013-07-12 00:31:00,82.9,56.1,29.59,SE,141,0.0,0.0,40,0.00,,,0.00,Wunderground v.1.15,2013-07-12 06:31:00,
2013-07-12 00:36:00,82.8,56.0,29.58,SE,142,0.0,0.0,40,0.00,,,0.00,Wunderground v.1.15,2013-07-12 06:36:00,
2013-07-12 00:41:00,82.7,55.9,29.58,SE,142,0.0,0.0,40,0.00,,,0.00,Wunderground v.1.15,2013-07-12 06:41:00,
2013-07-12 00:46:00,82.5,55.7,29.58,ESE,121,0.0,0.0,40,0.00,,,0.00,Wunderground v.1.15,2013-07-12 06:46:00,
2013-07-12 00:56:00,82.4,55.7,29.58,ESE,117,0.0,0.0,40,0.00,,,0.00,Wunderground v.1.15,2013-07-12 06:56:00,
2013-07-12 01:06:00,82.5,56.4,29.58,ESE,117,0.0,0.0,41,0.00,,,0.00,Wunderground v.1.15,2013-07-12 07:06:00,
2013-07-12 01:16:00,82.5,56.4,29.58,ESE,117,0.0,0.0,41,0.00,,,0.00,Wunderground v.1.15,2013-07-12 07:16:00,
2013-07-12 01:21:00,82.5,56.4,29.58,ESE,117,0.0,0.0,41,0.00,,,0.00,Wunderground v.1.15,2013-07-12 07:21:00,
2013-07-12 01:26:00,82.5,56.4,29.58,ESE,117,0.0,0.0,41,0.00,,,0.00,Wunderground v.1.15,2013-07-12 07:26:00,
2013-07-12 01:31:00,82.5,56.4,29.58,ESE,117,0.0,0.0,41,0.00,,,0.00,Wunderground v.1.15,2013-07-12 07:31:00,
2013-07-12 01:36:00,82.5,56.4,29.58,ESE,117,0.0,0.0,41,0.00,,,0.00,Wunderground v.1.15,2013-07-12 07:36:00,
2013-07-12 01:41:00,82.4,56.3,29.59,ESE,117,0.0,0.0,41,0.00,,,0.00,Wunderground v.1.15,2013-07-12 07:41:00,
2013-07-12 01:46:00,82.5,56.4,29.58,ESE,117,0.0,0.0,41,0.00,,,0.00,Wunderground v.1.15,2013-07-12 07:46:00,
2013-07-12 01:51:00,82.5,56.4,29.58,ESE,117,0.0,0.0,41,0.00,,,0.00,Wunderground v.1.15,2013-07-12 07:51:00,
2013-07-12 02:01:00,82.5,55.7,29.57,ESE,114,0.0,0.0,40,0.00,,,0.00,Wunderground v.1.15,2013-07-12 08:01:00,
2013-07-12 02:06:00,82.5,55.7,29.57,ESE,114,0.0,0.0,40,0.00,,,0.00,Wunderground v.1.15,2013-07-12 08:06:00,
2013-07-12 02:16:00,82.4,56.3,29.58,ESE,114,0.0,0.0,41,0.00,,,0.00,Wunderground v.1.15,2013-07-12 08:16:00,
2013-07-12 02:21:00,82.3,55.6,29.58,ESE,114,0.0,0.0,40,0.00,,,0.00,Wunderground v.1.15,2013-07-12 08:21:00,
2013-07-12 02:26:00,82.2,54.8,29.58,ESE,114,0.0,0.0,39,0.00,,,0.00,Wunderground v.1.15,2013-07-12 08:26:00,
2013-07-12 02:31:00,82.1,54.0,29.58,ESE,116,0.0,0.0,38,0.00,,,0.00,Wunderground v.1.15,2013-07-12 08:31:00,
2013-07-12 02:36:00,82.2,54.1,29.58,SE,132,0.0,0.0,38,0.00,,,0.00,Wunderground v.1.15,2013-07-12 08:36:00,
2013-07-12 02:46:00,82.2,54.1,29.58,SE,133,0.0,0.0,38,0.00,,,0.00,Wunderground v.1.15,2013-07-12 08:46:00,
2013-07-12 02:51:00,82.2,54.1,29.58,SE,134,0.0,0.0,38,0.00,,,0.00,Wunderground v.1.15,2013-07-12 08:51:00,
2013-07-12 02:56:00,82.1,54.7,29.58,SE,133,0.0,0.0,39,0.00,,,0.00,Wunderground v.1.15,2013-07-12 08:56:00,
2013-07-12 03:01:00,82.1,55.4,29.60,SE,134,0.0,0.0,40,0.00,,,0.00,Wunderground v.1.15,2013-07-12 09:01:00,
2013-07-12 03:06:00,81.9,55.2,29.60,North,355,0.0,0.0,40,0.00,,,0.00,Wunderground v.1.15,2013-07-12 09:06:00,
2013-07-12 03:16:00,81.5,56.8,29.60,NW,319,0.0,0.0,43,0.00,,,0.00,Wunderground v.1.15,2013-07-12 09:16:00,
2013-07-12 03:21:00,81.2,57.2,29.61,NE,36,0.0,0.0,44,0.00,,,0.00,Wunderground v.1.15,2013-07-12 09:21:00,
2013-07-12 03:26:00,80.8,57.5,29.61,NNW,344,0.0,0.0,45,0.00,,,0.00,Wunderground v.1.15,2013-07-12 09:26:00,
2013-07-12 03:31:00,80.5,57.8,29.61,NNW,329,0.0,0.0,46,0.00,,,0.00,Wunderground v.1.15,2013-07-12 09:31:00,
2013-07-12 03:36:00,80.1,58.0,29.61,NNW,342,0.0,0.0,47,0.00,,,0.00,Wunderground v.1.15,2013-07-12 09:36:00,
2013-07-12 03:41:00,79.8,58.4,29.61,WNW,295,0.0,0.0,48,0.00,,,0.00,Wunderground v.1.15,2013-07-12 09:41:00,
2013-07-12 03:46:00,79.5,58.7,29.61,NW,315,1.0,1.0,49,0.00,,,0.00,Wunderground v.1.15,2013-07-12 09:46:00,
2013-07-12 03:51:00,79.3,58.5,29.62,NW,311,0.0,0.0,49,0.00,,,0.00,Wunderground v.1.15,2013-07-12 09:51:00,
2013-07-12 03:56:00,79.0,57.6,29.62,NW,311,0.0,0.0,48,0.00,,,0.00,Wunderground v.1.15,2013-07-12 09:56:00,
2013-07-12 04:01:00,78.7,57.9,29.63,NW,311,0.0,0.0,49,0.00,,,0.00,Wunderground v.1.15,2013-07-12 10:01:00,
2013-07-12 04:06:00,78.6,57.8,29.62,NW,311,0.0,0.0,49,0.00,,,0.00,Wunderground v.1.15,2013-07-12 10:06:00,
2013-07-12 04:16:00,78.3,57.6,29.63,NW,311,0.0,0.0,49,0.00,,,0.00,Wunderground v.1.15,2013-07-12 10:16:00,
2013-07-12 04:26:00,77.9,57.2,29.63,NW,311,0.0,0.0,49,0.00,,,0.00,Wunderground v.1.15,2013-07-12 10:26:00,
2013-07-12 04:31:00,77.7,57.0,29.63,NW,311,0.0,0.0,49,0.00,,,0.00,Wunderground v.1.15,2013-07-12 10:31:00,
2013-07-12 04:41:00,77.3,57.2,29.64,NW,312,0.0,0.0,50,0.00,,,0.00,Wunderground v.1.15,2013-07-12 10:41:00,
2013-07-12 04:46:00,77.1,57.0,29.63,ENE,57,0.0,0.0,50,0.00,,,0.00,Wunderground v.1.15,2013-07-12 10:46:00,
2013-07-12 04:51:00,76.9,57.4,29.63,ENE,60,0.0,0.0,51,0.00,,,0.00,Wunderground v.1.15,2013-07-12 10:51:00,
2013-07-12 04:56:00,76.8,57.3,29.63,ENE,59,0.0,0.0,51,0.00,,,0.00,Wunderground v.1.15,2013-07-12 10:56:00,
2013-07-12 05:05:00,76.5,57.6,29.65,NE,34,0.0,0.0,52,0.00,,,0.00,Wunderground v.1.15,2013-07-12 11:05:00,
2013-07-12 05:15:00,76.2,57.8,29.65,NNE,33,0.0,0.0,53,0.00,,,0.00,Wunderground v.1.15,2013-07-12 11:15:00,
2013-07-12 05:25:00,76.1,57.7,29.66,NNE,33,0.0,0.0,53,0.00,,,0.00,Wunderground v.1.15,2013-07-12 11:25:00,
2013-07-12 05:30:00,76.0,57.6,29.66,NNE,33,0.0,0.0,53,0.00,,,0.00,Wunderground v.1.15,2013-07-12 11:30:00,
2013-07-12 05:35:00,75.9,58.1,29.66,NNE,33,0.0,0.0,54,0.00,,,0.00,Wunderground v.1.15,2013-07-12 11:35:00,
2013-07-12 05:45:00,75.8,58.0,29.66,NNE,33,0.0,0.0,54,0.00,,,0.00,Wunderground v.1.15,2013-07-12 11:45:00,
2013-07-12 05:50:00,75.7,57.9,29.66,NNE,33,0.0,0.0,54,0.00,,,0.00,Wunderground v.1.15,2013-07-12 11:50:00,
2013-07-12 05:55:00,75.6,57.8,29.67,NNE,33,0.0,0.0,54,0.00,,,0.00,Wunderground v.1.15,2013-07-12 11:55:00,
2013-07-12 06:00:00,75.5,58.2,29.67,NNE,33,0.0,0.0,55,0.00,,,0.00,Wunderground v.1.15,2013-07-12 12:00:00,
2013-07-12 06:05:00,75.3,58.0,29.68,NNE,32,0.0,0.0,55,0.00,,,0.00,Wunderground v.1.15,2013-07-12 12:05:00,
2013-07-12 06:15:00,75.1,58.3,29.68,NNE,32,0.0,0.0,56,0.00,,,0.00,Wunderground v.1.15,2013-07-12 12:15:00,
2013-07-12 06:20:00,75.0,58.2,29.68,NNE,32,0.0,0.0,56,0.00,,,0.00,Wunderground v.1.15,2013-07-12 12:20:00,
2013-07-12 06:25:00,74.9,58.1,29.68,NNE,31,0.0,0.0,56,0.00,,,0.00,Wunderground v.1.15,2013-07-12 12:25:00,
2013-07-12 06:30:00,74.8,58.1,29.68,NNE,30,0.0,0.0,56,0.00,,,0.00,Wunderground v.1.15,2013-07-12 12:30:00,
2013-07-12 06:35:00,74.8,58.1,29.68,NNE,31,0.0,0.0,56,0.00,,,0.00,Wunderground v.1.15,2013-07-12 12:35:00,
2013-07-12 06:45:00,74.7,58.0,29.69,NNE,31,0.0,0.0,56,0.00,,,0.00,Wunderground v.1.15,2013-07-12 12:45:00,
2013-07-12 06:50:00,74.6,57.9,29.69,NNE,31,0.0,0.0,56,0.00,,,0.00,Wunderground v.1.15,2013-07-12 12:50:00,
2013-07-12 06:55:00,74.5,57.8,29.69,NE,51,0.0,0.0,56,0.00,,,0.00,Wunderground v.1.15,2013-07-12 12:55:00,
2013-07-12 07:00:00,74.4,57.7,29.70,NE,51,0.0,0.0,56,0.00,,,0.00,Wunderground v.1.15,2013-07-12 13:00:00,
2013-07-12 07:05:00,74.5,57.8,29.71,East,86,0.0,0.0,56,0.00,,,0.00,Wunderground v.1.15,2013-07-12 13:05:00,
2013-07-12 07:15:00,74.7,58.0,29.71,East,86,0.0,0.0,56,0.00,,,0.00,Wunderground v.1.15,2013-07-12 13:15:00,
2013-07-12 07:20:00,74.8,57.5,29.71,East,86,0.0,0.0,55,0.00,,,0.00,Wunderground v.1.15,2013-07-12 13:20:00,
2013-07-12 07:25:00,75.0,57.7,29.71,East,86,0.0,0.0,55,0.00,,,0.00,Wunderground v.1.15,2013-07-12 13:25:00,
2013-07-12 07:30:00,75.2,57.9,29.72,SSE,148,0.0,0.0,55,0.00,,,0.00,Wunderground v.1.15,2013-07-12 13:30:00,
2013-07-12 07:35:00,75.4,57.6,29.72,SE,145,0.0,0.0,54,0.00,,,0.00,Wunderground v.1.15,2013-07-12 13:35:00,
2013-07-12 07:40:00,75.6,57.3,29.71,SE,136,0.0,0.0,53,0.00,,,0.00,Wunderground v.1.15,2013-07-12 13:40:00,
2013-07-12 07:45:00,75.7,57.9,29.71,SE,136,0.0,0.0,54,0.00,,,0.00,Wunderground v.1.15,2013-07-12 13:45:00,
2013-07-12 07:50:00,76.0,57.6,29.72,SE,134,0.0,0.0,53,0.00,,,0.00,Wunderground v.1.15,2013-07-12 13:50:00,
2013-07-12 08:00:00,76.7,58.3,29.72,ESE,105,0.0,0.0,53,0.00,,,0.00,Wunderground v.1.15,2013-07-12 14:00:00,
2013-07-12 08:10:00,77.1,58.6,29.73,ESE,105,0.0,0.0,53,0.00,,,0.00,Wunderground v.1.15,2013-07-12 14:10:00,
2013-07-12 08:15:00,77.3,58.8,29.73,ESE,105,0.0,1.0,53,0.00,,,0.00,Wunderground v.1.15,2013-07-12 14:15:00,
2013-07-12 08:20:00,77.6,59.1,29.72,ESE,105,0.0,0.0,53,0.00,,,0.00,Wunderground v.1.15,2013-07-12 14:20:00,
2013-07-12 08:25:00,78.2,59.7,29.72,ESE,105,0.0,0.0,53,0.00,,,0.00,Wunderground v.1.15,2013-07-12 14:25:00,
2013-07-12 08:35:00,79.6,59.9,29.71,ESE,105,0.0,0.0,51,0.00,,,0.00,Wunderground v.1.15,2013-07-12 14:35:00,
2013-07-12 08:40:00,80.5,60.1,29.72,ESE,105,0.0,0.0,50,0.00,,,0.00,Wunderground v.1.15,2013-07-12 14:40:00,
2013-07-12 08:45:00,81.1,59.6,29.72,ESE,105,0.0,0.0,48,0.00,,,0.00,Wunderground v.1.15,2013-07-12 14:45:00,
2013-07-12 08:50:00,81.6,59.4,29.71,East,93,0.0,0.0,47,0.00,,,0.00,Wunderground v.1.15,2013-07-12 14:50:00,
2013-07-12 08:55:00,82.2,60.0,29.70,NNE,22,0.0,0.0,47,0.00,,,0.00,Wunderground v.1.15,2013-07-12 14:55:00,
2013-07-12 09:00:00,82.9,60.0,29.70,NNE,24,0.0,0.0,46,0.00,,,0.00,Wunderground v.1.15,2013-07-12 15:00:00,
2013-07-12 09:05:00,83.5,59.3,29.70,NW,304,0.0,0.0,44,0.00,,,0.00,Wunderground v.1.15,2013-07-12 15:05:00,
2013-07-12 09:15:00,83.9,59.7,29.70,NNW,335,0.0,0.0,44,0.00,,,0.00,Wunderground v.1.15,2013-07-12 15:15:00,
2013-07-12 09:20:00,84.1,59.8,29.70,NNW,336,0.0,0.0,44,0.00,,,0.00,Wunderground v.1.15,2013-07-12 15:20:00,
2013-07-12 09:25:00,84.6,59.6,29.69,NNE,19,1.0,1.0,43,0.00,,,0.00,Wunderground v.1.15,2013-07-12 15:25:00,
2013-07-12 09:35:00,85.9,58.8,29.69,NW,318,0.0,1.0,40,0.00,,,0.00,Wunderground v.1.15,2013-07-12 15:35:00,
2013-07-12 09:45:00,87.5,59.5,29.67,NW,326,0.0,0.0,39,0.00,,,0.00,Wunderground v.1.15,2013-07-12 15:45:00,
2013-07-12 09:50:00,87.9,59.1,29.68,North,360,0.0,1.0,38,0.00,,,0.00,Wunderground v.1.15,2013-07-12 15:50:00,
2013-07-12 09:55:00,88.3,58.7,29.67,NNW,341,0.0,1.0,37,0.00,,,0.00,Wunderground v.1.15,2013-07-12 15:55:00,
2013-07-12 10:00:00,88.5,59.7,29.66,NW,315,1.0,1.0,38,0.00,,,0.00,Wunderground v.1.15,2013-07-12 16:00:00,
2013-07-12 10:05:00,89.0,58.6,29.67,North,355,0.0,1.0,36,0.00,,,0.00,Wunderground v.1.15,2013-07-12 16:05:00,
2013-07-12 10:15:00,89.1,58.7,29.67,NNW,348,0.0,1.0,36,0.00,,,0.00,Wunderground v.1.15,2013-07-12 16:15:00,
2013-07-12 10:20:00,88.8,59.2,29.67,NW,323,0.0,0.0,37,0.00,,,0.00,Wunderground v.1.15,2013-07-12 16:20:00,
2013-07-12 10:25:00,88.6,58.2,29.66,NNW,340,0.0,2.0,36,0.00,,,0.00,Wunderground v.1.15,2013-07-12 16:25:00,
2013-07-12 10:30:00,88.3,58.0,29.66,NW,314,1.0,1.0,36,0.00,,,0.00,Wunderground v.1.15,2013-07-12 16:30:00,
2013-07-12 10:35:00,87.9,57.6,29.66,North,355,1.0,1.0,36,0.00,,,0.00,Wunderground v.1.15,2013-07-12 16:35:00,
2013-07-12 10:45:00,87.1,57.7,29.67,NNW,328,0.0,0.0,37,0.00,,,0.00,Wunderground v.1.15,2013-07-12 16:45:00,
2013-07-12 10:55:00,87.1,58.4,29.67,NNW,329,0.0,3.0,38,0.00,,,0.00,Wunderground v.1.15,2013-07-12 16:55:00,
2013-07-12 11:00:00,87.1,58.4,29.67,NW,325,0.0,0.0,38,0.00,,,0.00,Wunderground v.1.15,2013-07-12 17:00:00,
2013-07-12 11:05:00,87.2,57.8,29.67,NNW,331,0.0,1.0,37,0.00,,,0.00,Wunderground v.1.15,2013-07-12 17:05:00,
2013-07-12 11:15:00,88.3,58.7,29.67,North,360,0.0,0.0,37,0.00,,,0.00,Wunderground v.1.15,2013-07-12 17:15:00,
2013-07-12 11:20:00,88.8,57.6,29.66,North,349,0.0,0.0,35,0.00,,,0.00,Wunderground v.1.15,2013-07-12 17:20:00,
2013-07-12 11:25:00,89.2,58.0,29.66,North,349,0.0,0.0,35,0.00,,,0.00,Wunderground v.1.15,2013-07-12 17:25:00,
2013-07-12 11:30:00,90.1,58.8,29.65,NNE,21,0.0,0.0,35,0.00,,,0.00,Wunderground v.1.15,2013-07-12 17:30:00,
2013-07-12 11:35:00,91.3,59.8,29.64,NW,323,0.0,0.0,35,0.00,,,0.00,Wunderground v.1.15,2013-07-12 17:35:00,
2013-07-12 11:40:00,92.0,58.8,29.64,NW,310,0.0,0.0,33,0.00,,,0.00,Wunderground v.1.15,2013-07-12 17:40:00,
2013-07-12 11:45:00,92.7,59.4,29.63,NNE,28,0.0,0.0,33,0.00,,,0.00,Wunderground v.1.15,2013-07-12 17:45:00,
2013-07-12 11:55:00,94.5,58.3,29.63,NE,41,0.0,0.0,30,0.00,,,0.00,Wunderground v.1.15,2013-07-12 17:55:00,
2013-07-12 12:00:00,95.2,59.8,29.62,NNW,331,0.0,2.0,31,0.00,,,0.00,Wunderground v.1.15,2013-07-12 18:00:00,
2013-07-12 12:05:00,96.0,59.6,29.62,NNE,21,0.0,2.0,30,0.00,,,0.00,Wunderground v.1.15,2013-07-12 18:05:00,
2013-07-12 12:15:00,97.4,59.8,29.61,ENE,78,0.0,0.0,29,0.00,,,0.00,Wunderground v.1.15,2013-07-12 18:15:00,
2013-07-12 12:25:00,98.3,59.6,29.60,NNW,327,1.0,1.0,28,0.00,,,0.00,Wunderground v.1.15,2013-07-12 18:25:00,
2013-07-12 12:30:00,98.7,59.9,29.59,NNW,327,0.0,0.0,28,0.00,,,0.00,Wunderground v.1.15,2013-07-12 18:30:00,
2013-07-12 12:35:00,99.0,59.2,29.59,SE,138,0.0,0.0,27,0.00,,,0.00,Wunderground v.1.15,2013-07-12 18:35:00,
2013-07-12 12:45:00,99.9,61.0,29.58,NW,306,0.0,3.0,28,0.00,,,0.00,Wunderground v.1.15,2013-07-12 18:45:00,
2013-07-12 12:50:00,100.4,60.4,29.57,NNE,19,0.0,0.0,27,0.00,,,0.00,Wunderground v.1.15,2013-07-12 18:50:00,
2013-07-12 12:55:00,100.7,59.6,29.58,NNE,24,0.0,0.0,26,0.00,,,0.00,Wunderground v.1.15,2013-07-12 18:55:00,
2013-07-12 13:00:00,100.7,58.5,29.58,NNE,16,0.0,0.0,25,0.00,,,0.00,Wunderground v.1.15,2013-07-12 19:00:00,
2013-07-12 13:05:00,100.3,58.1,29.58,East,85,0.0,0.0,25,0.00,,,0.00,Wunderground v.1.15,2013-07-12 19:05:00,
2013-07-12 13:15:00,99.6,59.7,29.58,NW,322,0.0,3.0,27,0.00,,,0.00,Wunderground v.1.15,2013-07-12 19:15:00,
2013-07-12 13:20:00,98.5,57.7,29.57,WSW,241,0.0,0.0,26,0.00,,,0.00,Wunderground v.1.15,2013-07-12 19:20:00,
2013-07-12 13:30:00,97.2,57.6,29.57,SE,129,0.0,0.0,27,0.00,,,0.00,Wunderground v.1.15,2013-07-12 19:30:00,
2013-07-12 13:35:00,96.5,58.1,29.57,NNW,338,1.0,1.0,28,0.00,,,0.00,Wunderground v.1.15,2013-07-12 19:35:00,
2013-07-12 13:40:00,96.1,57.7,29.58,NW,306,1.0,1.0,28,0.00,,,0.00,Wunderground v.1.15,2013-07-12 19:40:00,
2013-07-12 13:45:00,95.5,59.1,29.57,West,266,0.0,1.0,30,0.00,,,0.00,Wunderground v.1.15,2013-07-12 19:45:00,
2013-07-12 13:50:00,94.7,59.4,29.58,West,279,0.0,0.0,31,0.00,,,0.00,Wunderground v.1.15,2013-07-12 19:50:00,
2013-07-12 13:55:00,93.8,59.5,29.58,WNW,284,0.0,0.0,32,0.00,,,0.00,Wunderground v.1.15,2013-07-12 19:55:00,
2013-07-12 14:00:00,93.1,58.9,29.58,West,260,0.0,0.0,32,0.00,,,0.00,Wunderground v.1.15,2013-07-12 20:00:00,
2013-07-12 14:10:00,91.8,58.6,29.59,SE,141,0.0,0.0,33,0.00,,,0.00,Wunderground v.1.15,2013-07-12 20:10:00,
2013-07-12 14:15:00,91.1,57.1,29.61,ENE,71,1.0,1.0,32,0.00,,,0.00,Wunderground v.1.15,2013-07-12 20:15:00,
2013-07-12 14:20:00,89.9,62.3,29.61,SSE,159,2.0,2.0,40,0.00,,,0.00,Wunderground v.1.15,2013-07-12 20:20:00,
2013-07-12 14:25:00,88.2,66.6,29.61,NW,304,3.0,4.0,49,0.00,,,0.00,Wunderground v.1.15,2013-07-12 20:25:00,
2013-07-12 14:30:00,85.8,66.7,29.61,WNW,286,1.0,1.0,53,0.00,,,0.00,Wunderground v.1.15,2013-07-12 20:30:00,
2013-07-12 14:35:00,83.7,64.2,29.61,West,280,0.0,1.0,52,0.00,,,0.00,Wunderground v.1.15,2013-07-12 20:35:00,
2013-07-12 14:40:00,82.3,64.0,29.62,WNW,296,0.0,0.0,54,0.00,,,0.01,Wunderground v.1.15,2013-07-12 20:40:00,
2013-07-12 14:50:00,81.0,65.8,29.62,WNW,296,0.0,0.0,60,0.00,,,0.01,Wunderground v.1.15,2013-07-12 20:50:00,
2013-07-12 15:00:00,80.7,66.0,29.61,WNW,296,0.0,0.0,61,0.00,,,0.02,Wunderground v.1.15,2013-07-12 21:00:00,
2013-07-12 15:05:00,81.3,66.6,29.62,WNW,302,0.0,0.0,61,0.00,,,0.02,Wunderground v.1.15,2013-07-12 21:05:00,
2013-07-12 15:15:00,82.9,63.5,29.62,NW,305,0.0,0.0,52,0.00,,,0.02,Wunderground v.1.15,2013-07-12 21:15:00,
2013-07-12 15:20:00,83.7,62.5,29.61,NW,304,0.0,0.0,49,0.00,,,0.02,Wunderground v.1.15,2013-07-12 21:20:00,
2013-07-12 15:25:00,84.7,62.8,29.60,NW,304,0.0,0.0,48,0.00,,,0.02,Wunderground v.1.15,2013-07-12 21:25:00,
2013-07-12 15:30:00,85.8,59.4,29.61,WNW,289,0.0,0.0,41,0.00,,,0.02,Wunderground v.1.15,2013-07-12 21:30:00,
2013-07-12 15:40:00,88.4,62.4,29.59,NW,317,0.0,0.0,42,0.00,,,0.03,Wunderground v.1.15,2013-07-12 21:40:00,
2013-07-12 15:45:00,89.3,60.4,29.58,NNW,342,0.0,0.0,38,0.00,,,0.03,Wunderground v.1.15,2013-07-12 21:45:00,
2013-07-12 15:55:00,91.1,59.6,29.57,SW,235,0.0,0.0,35,0.00,,,0.03,Wunderground v.1.15,2013-07-12 21:55:00,
2013-07-12 16:00:00,91.7,58.5,29.57,WSW,244,0.0,0.0,33,0.00,,,0.03,Wunderground v.1.15,2013-07-12 22:00:00,
2013-07-12 16:05:00,92.4,59.1,29.58,WSW,246,0.0,0.0,33,0.00,,,0.04,Wunderground v.1.15,2013-07-12 22:05:00,
2013-07-12 16:15:00,93.1,59.7,29.57,WNW,298,0.0,0.0,33,0.00,,,0.04,Wunderground v.1.15,2013-07-12 22:15:00,
2013-07-12 16:25:00,93.8,60.3,29.57,NW,309,0.0,0.0,33,0.00,,,0.04,Wunderground v.1.15,2013-07-12 22:25:00,
2013-07-12 16:35:00,93.7,58.5,29.57,NNE,15,1.0,3.0,31,0.00,,,0.04,Wunderground v.1.15,2013-07-12 22:35:00,
2013-07-12 16:40:00,93.8,58.6,29.56,NNW,336,1.0,1.0,31,0.00,,,0.04,Wunderground v.1.15,2013-07-12 22:40:00,
2013-07-12 16:45:00,93.4,59.1,29.57,North,360,1.0,1.0,32,0.00,,,0.04,Wunderground v.1.15,2013-07-12 22:45:00,
2013-07-12 16:50:00,92.7,55.8,29.57,NE,49,0.0,0.0,29,0.00,,,0.04,Wunderground v.1.15,2013-07-12 22:50:00,
2013-07-12 16:55:00,92.0,57.0,29.57,NNW,334,0.0,3.0,31,0.00,,,0.04,Wunderground v.1.15,2013-07-12 22:55:00,
2013-07-12 17:05:00,91.1,58.8,29.58,NNW,346,1.0,1.0,34,0.00,,,0.05,Wunderground v.1.15,2013-07-12 23:05:00,
2013-07-12 17:15:00,90.9,59.5,29.58,NNW,334,0.0,1.0,35,0.00,,,0.05,Wunderground v.1.15,2013-07-12 23:15:00,
2013-07-12 17:20:00,90.9,58.7,29.58,NNW,334,0.0,1.0,34,0.00,,,0.05,Wunderground v.1.15,2013-07-12 23:20:00,
2013-07-12 17:25:00,91.1,58.8,29.58,NNW,336,0.0,1.0,34,0.00,,,0.05,Wunderground v.1.15,2013-07-12 23:25:00,
2013-07-12 17:35:00,91.7,58.5,29.56,NNE,13,0.0,0.0,33,0.00,,,0.05,Wunderground v.1.15,2013-07-12 23:35:00,
2013-07-12 17:40:00,91.7,57.7,29.56,NNW,329,0.0,0.0,32,0.00,,,0.05,Wunderground v.1.15,2013-07-12 23:40:00,
2013-07-12 17:45:00,91.8,57.7,29.56,SW,236,0.0,0.0,32,0.00,,,0.05,Wunderground v.1.15,2013-07-12 23:45:00,
2013-07-12 17:55:00,91.8,58.6,29.56,NNW,342,0.0,1.0,33,0.00,,,0.06,Wunderground v.1.15,2013-07-12 23:55:00,
2013-07-12 18:00:00,91.8,58.6,29.56,NW,326,0.0,0.0,33,0.00,,,0.06,Wunderground v.1.15,2013-07-13 00:00:00,
2013-07-12 18:05:00,91.9,57.8,29.56,WNW,298,0.0,0.0,32,0.00,,,0.06,Wunderground v.1.15,2013-07-13 00:05:00,
2013-07-12 18:15:00,92.0,58.8,29.57,North,355,0.0,0.0,33,0.00,,,0.06,Wunderground v.1.15,2013-07-13 00:15:00,
2013-07-12 18:20:00,92.1,58.0,29.56,NNE,13,0.0,0.0,32,0.00,,,0.06,Wunderground v.1.15,2013-07-13 00:20:00,
2013-07-12 18:25:00,92.0,57.9,29.57,NNW,329,0.0,3.0,32,0.00,,,0.06,Wunderground v.1.15,2013-07-13 00:25:00,
2013-07-12 18:30:00,91.8,57.7,29.57,NW,322,0.0,0.0,32,0.00,,,0.06,Wunderground v.1.15,2013-07-13 00:30:00,
2013-07-12 18:40:00,91.5,58.3,29.58,ENE,68,0.0,0.0,33,0.00,,,0.06,Wunderground v.1.15,2013-07-13 00:40:00,
2013-07-12 18:45:00,90.8,57.7,29.58,NE,53,1.0,1.0,33,0.00,,,0.06,Wunderground v.1.15,2013-07-13 00:45:00,
2013-07-12 18:50:00,90.3,58.1,29.58,ENE,67,1.0,1.0,34,0.00,,,0.06,Wunderground v.1.15,2013-07-13 00:50:00,
2013-07-12 18:55:00,90.0,57.9,29.58,NE,56,0.0,1.0,34,0.00,,,0.06,Wunderground v.1.15,2013-07-13 00:55:00,
2013-07-12 19:00:00,89.6,57.5,29.59,SE,126,0.0,3.0,34,0.00,,,0.06,Wunderground v.1.15,2013-07-13 01:00:00,
2013-07-12 19:05:00,89.4,57.3,29.58,East,88,1.0,3.0,34,0.00,,,0.06,Wunderground v.1.15,2013-07-13 01:05:00,
2013-07-12 19:15:00,89.4,56.5,29.58,ESE,110,0.0,1.0,33,0.00,,,0.07,Wunderground v.1.15,2013-07-13 01:15:00,
2013-07-12 19:20:00,89.4,58.1,29.58,ESE,119,0.0,0.0,35,0.00,,,0.07,Wunderground v.1.15,2013-07-13 01:20:00,
2013-07-12 19:25:00,89.3,56.4,29.58,ESE,123,0.0,0.0,33,0.00,,,0.07,Wunderground v.1.15,2013-07-13 01:25:00,
2013-07-12 19:30:00,89.3,55.6,29.59,SE,142,0.0,0.0,32,0.00,,,0.07,Wunderground v.1.15,2013-07-13 01:30:00,
2013-07-12 19:35:00,89.2,55.5,29.58,ENE,61,0.0,0.0,32,0.00,,,0.07,Wunderground v.1.15,2013-07-13 01:35:00,
2013-07-12 19:45:00,89.0,55.3,29.58,ENE,70,0.0,0.0,32,0.00,,,0.07,Wunderground v.1.15,2013-07-13 01:45:00,
2013-07-12 19:50:00,88.8,56.0,29.59,East,92,0.0,0.0,33,0.00,,,0.07,Wunderground v.1.15,2013-07-13 01:50:00,
2013-07-12 19:55:00,88.6,55.8,29.58,SE,140,0.0,0.0,33,0.00,,,0.07,Wunderground v.1.15,2013-07-13 01:55:00,
2013-07-12 20:05:00,88.4,54.8,29.57,ENE,78,0.0,0.0,32,0.00,,,0.07,Wunderground v.1.15,2013-07-13 02:05:00,
2013-07-12 20:15:00,88.1,54.5,29.58,ENE,59,0.0,0.0,32,0.00,,,0.07,Wunderground v.1.15,2013-07-13 02:15:00,
2013-07-12 20:20:00,87.9,55.2,29.58,NNE,17,0.0,0.0,33,0.00,,,0.07,Wunderground v.1.15,2013-07-13 02:20:00,
2013-07-12 20:25:00,87.7,55.9,29.58,NNE,17,0.0,0.0,34,0.00,,,0.07,Wunderground v.1.15,2013-07-13 02:25:00,
2013-07-12 20:35:00,87.2,55.4,29.58,NE,38,0.0,0.0,34,0.00,,,0.08,Wunderground v.1.15,2013-07-13 02:35:00,
2013-07-12 20:45:00,87.0,54.4,29.58,ENE,77,0.0,0.0,33,0.00,,,0.08,Wunderground v.1.15,2013-07-13 02:45:00,
2013-07-12 20:50:00,86.9,53.5,29.58,NE,56,0.0,0.0,32,0.00,,,0.08,Wunderground v.1.15,2013-07-13 02:50:00,
2013-07-12 21:05:00,87.0,53.6,29.57,ESE,105,0.0,0.0,32,0.00,,,0.08,Wunderground v.1.15,2013-07-13 03:05:00,
2013-07-12 21:15:00,87.0,53.6,29.57,East,79,0.0,0.0,32,0.00,,,0.08,Wunderground v.1.15,2013-07-13 03:15:00,
2013-07-12 21:20:00,86.9,53.5,29.58,ENE,78,0.0,0.0,32,0.00,,,0.08,Wunderground v.1.15,2013-07-13 03:20:00,
2013-07-12 21:25:00,86.8,54.2,29.59,ENE,78,0.0,0.0,33,0.00,,,0.08,Wunderground v.1.15,2013-07-13 03:25:00,
2013-07-12 21:35:00,86.4,57.0,29.59,ESE,119,1.0,5.0,37,0.00,,,0.08,Wunderground v.1.15,2013-07-13 03:35:00,
2013-07-12 21:40:00,85.9,58.8,29.60,East,80,1.0,1.0,40,0.00,,,0.08,Wunderground v.1.15,2013-07-13 03:40:00,
2013-07-12 21:45:00,85.3,59.6,29.61,ESE,109,1.0,1.0,42,0.00,,,0.08,Wunderground v.1.15,2013-07-13 03:45:00,
2013-07-12 21:55:00,83.8,60.2,29.62,North,355,0.0,3.0,45,0.00,,,0.08,Wunderground v.1.15,2013-07-13 03:55:00,
2013-07-12 22:00:00,83.2,59.6,29.63,WSW,257,0.0,0.0,45,0.00,,,0.08,Wunderground v.1.15,2013-07-13 04:00:00,
2013-07-12 22:05:00,82.5,60.2,29.64,West,280,0.0,0.0,47,0.00,,,0.08,Wunderground v.1.15,2013-07-13 04:05:00,
2013-07-12 22:10:00,82.0,59.8,29.65,WNW,295,0.0,1.0,47,0.00,,,0.08,Wunderground v.1.15,2013-07-13 04:10:00,
2013-07-12 22:15:00,81.6,60.0,29.66,WSW,248,0.0,1.0,48,0.00,,,0.08,Wunderground v.1.15,2013-07-13 04:15:00,
2013-07-12 22:20:00,81.2,59.6,29.66,West,265,0.0,0.0,48,0.00,,,0.08,Wunderground v.1.15,2013-07-13 04:20:00,
2013-07-12 22:25:00,80.9,59.9,29.66,WNW,283,1.0,4.0,49,0.00,,,0.08,Wunderground v.1.15,2013-07-13 04:25:00,
2013-07-12 22:30:00,80.7,60.3,29.66,West,273,1.0,1.0,50,0.00,,,0.08,Wunderground v.1.15,2013-07-13 04:30:00,
2013-07-12 22:40:00,80.4,60.1,29.67,NW,305,0.0,0.0,50,0.00,,,0.08,Wunderground v.1.15,2013-07-13 04:40:00,
2013-07-12 22:45:00,80.2,59.3,29.67,WNW,285,0.0,0.0,49,0.00,,,0.08,Wunderground v.1.15,2013-07-13 04:45:00,
2013-07-12 22:50:00,80.1,59.8,29.67,NW,309,0.0,0.0,50,0.00,,,0.08,Wunderground v.1.15,2013-07-13 04:50:00,
2013-07-12 23:00:00,79.8,59.5,29.67,WNW,299,0.0,0.0,50,0.00,,,0.08,Wunderground v.1.15,2013-07-13 05:00:00,
2013-07-12 23:05:00,79.7,59.4,29.64,West,281,0.0,0.0,50,0.00,,,0.08,Wunderground v.1.15,2013-07-13 05:05:00,
2013-07-12 23:15:00,79.6,58.8,29.64,WNW,286,0.0,0.0,49,0.00,,,0.08,Wunderground v.1.15,2013-07-13 05:15:00,
2013-07-12 23:20:00,79.4,58.6,29.65,WNW,286,0.0,0.0,49,0.00,,,0.08,Wunderground v.1.15,2013-07-13 05:20:00,
2013-07-12 23:25:00,79.3,57.9,29.65,SSW,194,0.0,0.0,48,0.00,,,0.08,Wunderground v.1.15,2013-07-13 05:25:00,
2013-07-12 23:35:00,79.2,58.4,29.66,SE,137,0.0,0.0,49,0.00,,,0.08,Wunderground v.1.15,2013-07-13 05:35:00,
2013-07-12 23:40:00,79.2,58.4,29.66,SE,138,0.0,0.0,49,0.00,,,0.08,Wunderground v.1.15,2013-07-13 05:40:00,
2013-07-12 23:50:00,79.1,58.3,29.66,SE,138,0.0,0.0,49,0.00,,,0.08,Wunderground v.1.15,2013-07-13 05:50:00,
2013-07-12 23:55:00,79.0,57.6,29.66,SE,137,0.0,0.0,48,0.00,,,0.08,Wunderground v.1.15,2013-07-13 05:55:00,